| time (UTC) | temp F | wind direction | speed MPH | gust MPH | rain 1hr in | rain 24hr in | rain mn in | humidity % | barometer mb |
| 20260904201006 | 99 | 206 | 6.0 | 14.0 | 0.00 | 0.00 | 0.00 | 40 | 1012.0 |
| 20260904200432 | 97 | 165 | 6.0 | 14.0 | 0.00 | 0.00 | 0.00 | 43 | 1012.1 |
| 20260904195935 | 97 | 113 | 6.0 | 17.0 | 0.00 | 0.00 | 0.00 | 44 | 1012.0 |
| 20260904195438 | 97 | 97 | 11.0 | 17.0 | 0.00 | 0.00 | 0.00 | 43 | 1012.1 |
| 20260904194942 | 98 | 111 | 9.0 | 13.0 | 0.00 | 0.00 | 0.00 | 43 | 1012.2 |
| 20260904194428 | 98 | 178 | 3.0 | 11.0 | 0.00 | 0.00 | 0.00 | 43 | 1012.3 |
| 20260904193936 | 98 | 124 | 7.0 | 13.0 | 0.00 | 0.00 | 0.00 | 44 | 1012.4 |
| 20260904193442 | 98 | 214 | 10.0 | 13.0 | 0.00 | 0.00 | 0.00 | 43 | 1012.4 |
| 20260904192933 | 98 | 194 | 6.0 | 11.0 | 0.00 | 0.00 | 0.00 | 43 | 1012.5 |
| 20260904192501 | 98 | 179 | 6.0 | 11.0 | 0.00 | 0.00 | 0.00 | 44 | 1012.6 |
| 20260904191929 | 97 | 153 | 2.0 | 16.0 | 0.00 | 0.00 | 0.00 | 44 | 1012.5 |
| 20260904191429 | 97 | 112 | 9.0 | 16.0 | 0.00 | 0.00 | 0.00 | 43 | 1012.6 |
| 20260904190937 | 97 | 103 | 10.0 | 14.0 | 0.00 | 0.00 | 0.00 | 43 | 1012.7 |
| 20260904190446 | 97 | 118 | 7.0 | 15.0 | 0.00 | 0.00 | 0.00 | 42 | 1012.7 |
| 20260904185953 | 97 | 172 | 9.0 | 15.0 | 0.00 | 0.00 | 0.00 | 42 | 1012.8 |
| 20260904185440 | 97 | 131 | 9.0 | 13.0 | 0.00 | 0.00 | 0.00 | 43 | 1012.8 |
| 20260904184943 | 96 | 219 | 5.0 | 7.0 | 0.00 | 0.00 | 0.00 | 45 | 1013.0 |
| 20260904184428 | 96 | 143 | 5.0 | 14.0 | 0.00 | 0.00 | 0.00 | 44 | 1013.0 |
| 20260904183932 | 96 | 206 | 8.0 | 17.0 | 0.00 | 0.00 | 0.00 | 44 | 1013.2 |
| 20260904183433 | 95 | 153 | 4.0 | 17.0 | 0.00 | 0.00 | 0.00 | 46 | 1013.1 |
| 20260904182924 | 95 | 135 | 5.0 | 11.0 | 0.00 | 0.00 | 0.00 | 46 | 1013.1 |
| 20260904182503 | 95 | 97 | 5.0 | 11.0 | 0.00 | 0.00 | 0.00 | 47 | 1013.3 |
| 20260904181949 | 95 | 188 | 6.0 | 12.0 | 0.00 | 0.00 | 0.00 | 48 | 1013.3 |
| 20260904181429 | 95 | 191 | 7.0 | 12.0 | 0.00 | 0.00 | 0.00 | 48 | 1013.4 |
| 20260904180947 | 94 | 204 | 3.0 | 10.0 | 0.00 | 0.00 | 0.00 | 49 | 1013.5 |
| 20260904180430 | 94 | 189 | 5.0 | 11.0 | 0.00 | 0.00 | 0.00 | 49 | 1013.5 |
| 20260904175938 | 93 | 209 | 5.0 | 14.0 | 0.00 | 0.00 | 0.00 | 50 | 1013.5 |
| 20260904175446 | 93 | 202 | 6.0 | 14.0 | 0.00 | 0.00 | 0.00 | 50 | 1013.6 |
| 20260904174928 | 92 | 123 | 2.0 | 12.0 | 0.00 | 0.00 | 0.00 | 52 | 1013.8 |
| 20260904174438 | 92 | 183 | 6.0 | 12.0 | 0.00 | 0.00 | 0.00 | 51 | 1013.8 |
| 20260904173930 | 92 | 131 | 4.0 | 9.0 | 0.00 | 0.00 | 0.00 | 50 | 1013.9 |
| 20260904173450 | 91 | 225 | 6.0 | 9.0 | 0.00 | 0.00 | 0.00 | 51 | 1013.9 |
| 20260904172935 | 91 | 175 | 4.0 | 12.0 | 0.00 | 0.00 | 0.00 | 50 | 1013.9 |
| 20260904172443 | 92 | 188 | 6.0 | 16.0 | 0.00 | 0.00 | 0.00 | 49 | 1014.2 |
| 20260904171928 | 92 | 194 | 8.0 | 16.0 | 0.00 | 0.00 | 0.00 | 50 | 1014.1 |
| 20260904171437 | 92 | 193 | 4.0 | 13.0 | 0.00 | 0.00 | 0.00 | 51 | 1014.1 |
| 20260904170944 | 92 | 148 | 6.0 | 13.0 | 0.00 | 0.00 | 0.00 | 51 | 1014.3 |
| 20260904170433 | 91 | 201 | 3.0 | 10.0 | 0.00 | 0.00 | 0.00 | 53 | 1014.4 |
| 20260904165936 | 92 | 172 | 6.0 | 12.0 | 0.00 | 0.00 | 0.00 | 50 | 1014.3 |
| 20260904165439 | 91 | 199 | 7.0 | 12.0 | 0.00 | 0.00 | 0.00 | 50 | 1014.3 |
| 20260904164944 | 91 | 239 | 4.0 | 14.0 | 0.00 | 0.00 | 0.00 | 51 | 1014.4 |
| 20260904164430 | 91 | 243 | 7.0 | 14.0 | 0.00 | 0.00 | 0.00 | 55 | 1014.4 |
| 20260904163939 | 90 | 209 | 5.0 | 11.0 | 0.00 | 0.00 | 0.00 | 55 | 1014.4 |
| 20260904163503 | 89 | 190 | 7.0 | 11.0 | 0.00 | 0.00 | 0.00 | 57 | 1014.5 |
| 20260904162929 | 88 | 204 | 6.0 | 10.0 | 0.00 | 0.00 | 0.00 | 59 | 1014.4 |
| 20260904162433 | 88 | 214 | 4.0 | 7.0 | 0.00 | 0.00 | 0.00 | 60 | 1014.5 |
| 20260904161937 | 88 | 212 | 5.0 | 10.0 | 0.00 | 0.00 | 0.00 | 60 | 1014.6 |
| 20260904161444 | 88 | 200 | 7.0 | 11.0 | 0.00 | 0.00 | 0.00 | 61 | 1014.4 |
| 20260904160949 | 88 | 210 | 7.0 | 12.0 | 0.00 | 0.00 | 0.00 | 61 | 1014.5 |
| 20260904160432 | 88 | 207 | 7.0 | 13.0 | 0.00 | 0.00 | 0.00 | 61 | 1014.5 |
| 20260904155937 | 88 | 212 | 8.0 | 13.0 | 0.00 | 0.00 | 0.00 | 63 | 1014.5 |
| 20260904155425 | 87 | 208 | 7.0 | 12.0 | 0.00 | 0.00 | 0.00 | 64 | 1014.5 |
| 20260904155001 | 88 | 199 | 9.0 | 15.0 | 0.00 | 0.00 | 0.00 | 62 | 1014.3 |
| 20260904154427 | 87 | 193 | 9.0 | 15.0 | 0.00 | 0.00 | 0.00 | 62 | 1014.3 |
| 20260904153938 | 87 | 224 | 6.0 | 10.0 | 0.00 | 0.00 | 0.00 | 65 | 1014.4 |
| 20260904153445 | 87 | 229 | 7.0 | 11.0 | 0.00 | 0.00 | 0.00 | 64 | 1014.4 |
| 20260904152953 | 86 | 223 | 6.0 | 11.0 | 0.00 | 0.00 | 0.00 | 66 | 1014.4 |
| 20260904152440 | 86 | 213 | 5.0 | 11.0 | 0.00 | 0.00 | 0.00 | 70 | 1014.4 |
| 20260904151927 | 85 | 220 | 7.0 | 11.0 | 0.00 | 0.00 | 0.00 | 70 | 1014.4 |
| 20260904151449 | 85 | 166 | 3.0 | 7.0 | 0.00 | 0.00 | 0.00 | 71 | 1014.4 |
| 20260904150956 | 85 | 158 | 4.0 | 12.0 | 0.00 | 0.00 | 0.00 | 71 | 1014.4 |
| 20260904150426 | 84 | 220 | 3.0 | 12.0 | 0.00 | 0.00 | 0.00 | 69 | 1014.4 |
| 20260904145935 | 84 | 141 | 5.0 | 11.0 | 0.00 | 0.00 | 0.00 | 69 | 1014.3 |
| 20260904145439 | 84 | 202 | 4.0 | 11.0 | 0.00 | 0.00 | 0.00 | 72 | 1014.3 |
| 20260904144927 | 84 | 179 | 6.0 | 11.0 | 0.00 | 0.00 | 0.00 | 71 | 1014.3 |
| 20260904144433 | 84 | 218 | 5.0 | 9.0 | 0.00 | 0.00 | 0.00 | 72 | 1014.3 |
| 20260904143935 | 83 | 203 | 3.0 | 11.0 | 0.00 | 0.00 | 0.00 | 75 | 1014.3 |
| 20260904143439 | 83 | 204 | 5.0 | 11.0 | 0.00 | 0.00 | 0.00 | 74 | 1014.2 |
| 20260904142946 | 83 | 142 | 5.0 | 11.0 | 0.00 | 0.00 | 0.00 | 76 | 1014.1 |
| 20260904142500 | 83 | 153 | 3.0 | 9.0 | 0.00 | 0.00 | 0.00 | 77 | 1014.1 |
| 20260904141927 | 83 | 148 | 3.0 | 10.0 | 0.00 | 0.00 | 0.00 | 77 | 1014.2 |
| 20260904141432 | 83 | 122 | 5.0 | 10.0 | 0.00 | 0.00 | 0.00 | 76 | 1014.2 |
| 20260904140939 | 83 | 143 | 5.0 | 7.0 | 0.00 | 0.00 | 0.00 | 77 | 1014.2 |
| 20260904140428 | 82 | 133 | 3.0 | 6.0 | 0.00 | 0.00 | 0.00 | 79 | 1014.2 |
| 20260904135930 | 81 | 166 | 3.0 | 8.0 | 0.00 | 0.00 | 0.00 | 80 | 1014.1 |
| 20260904135439 | 81 | 143 | 6.0 | 10.0 | 0.00 | 0.00 | 0.00 | 80 | 1014.2 |
| 20260904135010 | 81 | 163 | 4.0 | 10.0 | 0.00 | 0.00 | 0.00 | 80 | 1014.1 |
| 20260904134429 | 81 | 168 | 3.0 | 6.0 | 0.00 | 0.00 | 0.00 | 80 | 1014.0 |
| 20260904133938 | 81 | 141 | 3.0 | 6.0 | 0.00 | 0.00 | 0.00 | 80 | 1013.9 |
| 20260904133447 | 81 | 137 | 2.0 | 7.0 | 0.00 | 0.00 | 0.00 | 80 | 1013.9 |
| 20260904132932 | 80 | 127 | 3.0 | 7.0 | 0.00 | 0.00 | 0.00 | 80 | 1013.8 |
| 20260904132435 | 80 | 144 | 3.0 | 7.0 | 0.00 | 0.00 | 0.00 | 81 | 1013.8 |
| 20260904131940 | 80 | 174 | 4.0 | 9.0 | 0.00 | 0.00 | 0.00 | 81 | 1013.7 |
| 20260904131431 | 80 | 176 | 4.0 | 7.0 | 0.00 | 0.00 | 0.00 | 81 | 1013.7 |
| 20260904130940 | 80 | 148 | 4.0 | 10.0 | 0.00 | 0.00 | 0.00 | 81 | 1013.6 |
| 20260904130448 | 80 | 134 | 5.0 | 10.0 | 0.00 | 0.00 | 0.00 | 81 | 1013.6 |
| 20260904125936 | 80 | 118 | 4.0 | 9.0 | 0.00 | 0.00 | 0.00 | 81 | 1013.6 |
| 20260904125441 | 80 | 141 | 5.0 | 9.0 | 0.00 | 0.00 | 0.00 | 80 | 1013.5 |
| 20260904124944 | 80 | 118 | 5.0 | 8.0 | 0.00 | 0.00 | 0.00 | 80 | 1013.5 |
| 20260904124428 | 80 | 124 | 5.0 | 7.0 | 0.00 | 0.00 | 0.00 | 80 | 1013.4 |
| 20260904123933 | 80 | 135 | 5.0 | 7.0 | 0.00 | 0.00 | 0.00 | 80 | 1013.4 |
| 20260904123441 | 80 | 130 | 4.0 | 6.0 | 0.00 | 0.00 | 0.00 | 80 | 1013.4 |
| 20260904122925 | 80 | 148 | 2.0 | 7.0 | 0.00 | 0.00 | 0.00 | 80 | 1013.4 |
| 20260904122436 | 80 | 136 | 4.0 | 7.0 | 0.00 | 0.00 | 0.00 | 80 | 1013.3 |
| 20260904121934 | 80 | 112 | 5.0 | 11.0 | 0.00 | 0.00 | 0.00 | 80 | 1013.3 |
| 20260904121443 | 80 | 122 | 5.0 | 11.0 | 0.00 | 0.00 | 0.00 | 80 | 1013.2 |
| 20260904120929 | 80 | 122 | 5.0 | 9.0 | 0.00 | 0.00 | 0.00 | 80 | 1013.2 |
| 20260904120441 | 80 | 130 | 4.0 | 7.0 | 0.00 | 0.00 | 0.00 | 80 | 1013.1 |
| 20260904115929 | 80 | 139 | 4.0 | 6.0 | 0.00 | 0.00 | 0.00 | 80 | 1013.2 |
| 20260904115430 | 80 | 116 | 3.0 | 7.0 | 0.00 | 0.00 | 0.00 | 80 | 1013.1 |
| 20260904114934 | 80 | 123 | 4.0 | 7.0 | 0.00 | 0.00 | 0.00 | 80 | 1013.0 |
| 20260904114440 | 80 | 127 | 5.0 | 7.0 | 0.00 | 0.00 | 0.00 | 80 | 1013.0 |
| 20260904113945 | 80 | 139 | 2.0 | 7.0 | 0.00 | 0.00 | 0.00 | 79 | 1013.0 |
| 20260904113428 | 80 | 142 | 4.0 | 8.0 | 0.00 | 0.00 | 0.00 | 79 | 1013.0 |
| 20260904112934 | 80 | 116 | 5.0 | 8.0 | 0.00 | 0.00 | 0.00 | 79 | 1012.9 |
| 20260904112442 | 80 | 148 | 3.0 | 6.0 | 0.00 | 0.00 | 0.00 | 79 | 1013.0 |
| 20260904111946 | 80 | 148 | 3.0 | 9.0 | 0.00 | 0.00 | 0.00 | 79 | 1012.9 |
| 20260904111431 | 80 | 190 | 5.0 | 9.0 | 0.00 | 0.00 | 0.00 | 79 | 1012.8 |
| 20260904110936 | 80 | 179 | 3.0 | 9.0 | 0.00 | 0.00 | 0.00 | 79 | 1012.9 |
| 20260904110440 | 80 | 182 | 5.0 | 9.0 | 0.00 | 0.00 | 0.00 | 79 | 1012.8 |
| 20260904105925 | 80 | 198 | 5.0 | 11.0 | 0.00 | 0.00 | 0.00 | 79 | 1012.7 |
| 20260904105434 | 80 | 166 | 6.0 | 11.0 | 0.00 | 0.00 | 0.00 | 79 | 1012.8 |
| 20260904104944 | 80 | 122 | 4.0 | 6.0 | 0.00 | 0.00 | 0.00 | 79 | 1012.8 |
| 20260904104450 | 80 | 133 | 2.0 | 5.0 | 0.00 | 0.00 | 0.00 | 79 | 1012.9 |
| 20260904103932 | 80 | 134 | 3.0 | 7.0 | 0.00 | 0.00 | 0.00 | 79 | 1012.8 |
| 20260904103439 | 80 | 144 | 3.0 | 7.0 | 0.00 | 0.00 | 0.00 | 79 | 1012.9 |
| 20260904102943 | 80 | 153 | 3.0 | 9.0 | 0.00 | 0.00 | 0.00 | 79 | 1012.8 |
| 20260904102433 | 80 | 197 | 4.0 | 9.0 | 0.00 | 0.00 | 0.00 | 79 | 1012.7 |
| 20260904101943 | 80 | 168 | 5.0 | 7.0 | 0.00 | 0.00 | 0.00 | 79 | 1012.7 |
| 20260904101432 | 80 | 175 | 4.0 | 9.0 | 0.00 | 0.00 | 0.00 | 79 | 1012.6 |
| 20260904100942 | 80 | 181 | 6.0 | 9.0 | 0.00 | 0.00 | 0.00 | 79 | 1012.6 |
| 20260904100426 | 80 | 232 | 4.0 | 7.0 | 0.00 | 0.00 | 0.00 | 79 | 1012.5 |
| 20260904095932 | 80 | 185 | 3.0 | 7.0 | 0.00 | 0.00 | 0.00 | 79 | 1012.4 |
| 20260904095438 | 80 | 172 | 2.0 | 7.0 | 0.00 | 0.00 | 0.00 | 79 | 1012.6 |
| 20260904094942 | 80 | 164 | 4.0 | 9.0 | 0.00 | 0.00 | 0.00 | 79 | 1012.5 |
| 20260904094451 | 80 | 153 | 4.0 | 9.0 | 0.00 | 0.00 | 0.00 | 79 | 1012.4 |
| 20260904093937 | 80 | 210 | 5.0 | 9.0 | 0.00 | 0.00 | 0.00 | 79 | 1012.3 |
| 20260904093441 | 80 | 189 | 5.0 | 9.0 | 0.00 | 0.00 | 0.00 | 78 | 1012.5 |
| 20260904092932 | 80 | 215 | 3.0 | 12.0 | 0.00 | 0.00 | 0.00 | 78 | 1012.5 |
| 20260904092459 | 80 | 148 | 7.0 | 12.0 | 0.00 | 0.00 | 0.00 | 78 | 1012.6 |
| 20260904091930 | 80 | 173 | 6.0 | 11.0 | 0.00 | 0.00 | 0.00 | 78 | 1012.6 |
| 20260904091435 | 80 | 181 | 6.0 | 11.0 | 0.00 | 0.00 | 0.00 | 78 | 1012.5 |
| 20260904090939 | 80 | 178 | 4.0 | 11.0 | 0.00 | 0.00 | 0.00 | 78 | 1012.5 |
| 20260904090446 | 80 | 175 | 6.0 | 11.0 | 0.00 | 0.00 | 0.00 | 78 | 1012.5 |
| 20260904085932 | 80 | 171 | 5.0 | 11.0 | 0.00 | 0.00 | 0.00 | 78 | 1012.4 |
| 20260904085507 | 80 | 148 | 3.0 | 12.0 | 0.00 | 0.00 | 0.00 | 78 | 1012.4 |
| 20260904084953 | 80 | 198 | 4.0 | 12.0 | 0.00 | 0.00 | 0.00 | 78 | 1012.5 |
| 20260904084435 | 80 | 218 | 6.0 | 12.0 | 0.00 | 0.00 | 0.00 | 77 | 1012.4 |
| 20260904083939 | 80 | 148 | 8.0 | 12.0 | 0.00 | 0.00 | 0.00 | 77 | 1012.4 |
| 20260904083427 | 80 | 190 | 7.0 | 12.0 | 0.00 | 0.00 | 0.00 | 77 | 1012.4 |
| 20260904082935 | 80 | 197 | 4.0 | 12.0 | 0.00 | 0.00 | 0.00 | 77 | 1012.4 |
| 20260904082443 | 81 | 200 | 5.0 | 12.0 | 0.00 | 0.00 | 0.00 | 77 | 1012.4 |
| 20260904081931 | 81 | 233 | 7.0 | 12.0 | 0.00 | 0.00 | 0.00 | 76 | 1012.4 |
| 20260904081436 | 81 | 178 | 6.0 | 9.0 | 0.00 | 0.00 | 0.00 | 76 | 1012.5 |
| 20260904080940 | 81 | 215 | 5.0 | 10.0 | 0.00 | 0.00 | 0.00 | 76 | 1012.5 |
| 20260904080446 | 81 | 165 | 3.0 | 10.0 | 0.00 | 0.00 | 0.00 | 76 | 1012.5 |
| 20260904075932 | 81 | 184 | 5.0 | 7.0 | 0.00 | 0.00 | 0.00 | 76 | 1012.5 |
| 20260904075442 | 81 | 182 | 4.0 | 11.0 | 0.00 | 0.00 | 0.00 | 76 | 1012.4 |
| 20260904074924 | 81 | 192 | 5.0 | 11.0 | 0.00 | 0.00 | 0.00 | 76 | 1012.5 |
| 20260904074432 | 81 | 193 | 7.0 | 12.0 | 0.00 | 0.00 | 0.00 | 75 | 1012.4 |
| 20260904073940 | 81 | 148 | 5.0 | 11.0 | 0.00 | 0.00 | 0.00 | 75 | 1012.5 |
| 20260904073427 | 81 | 184 | 7.0 | 11.0 | 0.00 | 0.00 | 0.00 | 75 | 1012.5 |
| 20260904072948 | 81 | 185 | 6.0 | 12.0 | 0.00 | 0.00 | 0.00 | 75 | 1012.5 |
| 20260904072451 | 81 | 142 | 8.0 | 12.0 | 0.00 | 0.00 | 0.00 | 75 | 1012.6 |
| 20260904072001 | 81 | 194 | 6.0 | 12.0 | 0.00 | 0.00 | 0.00 | 74 | 1012.6 |
| 20260904071428 | 81 | 102 | 4.0 | 9.0 | 0.00 | 0.00 | 0.00 | 74 | 1012.6 |
| 20260904070958 | 81 | 192 | 4.0 | 11.0 | 0.00 | 0.00 | 0.00 | 74 | 1012.7 |
| 20260904070424 | 81 | 203 | 5.0 | 11.0 | 0.00 | 0.00 | 0.00 | 74 | 1012.6 |
| 20260904065932 | 81 | 209 | 5.0 | 11.0 | 0.00 | 0.00 | 0.00 | 74 | 1012.5 |
| 20260904065441 | 81 | 177 | 6.0 | 12.0 | 0.00 | 0.00 | 0.00 | 74 | 1012.7 |
| 20260904064947 | 81 | 206 | 7.0 | 12.0 | 0.00 | 0.00 | 0.00 | 73 | 1012.7 |
| 20260904064503 | 81 | 190 | 4.0 | 12.0 | 0.00 | 0.00 | 0.00 | 73 | 1012.7 |
| 20260904063951 | 81 | 183 | 7.0 | 13.0 | 0.00 | 0.00 | 0.00 | 73 | 1012.8 |
| 20260904063432 | 81 | 199 | 6.0 | 13.0 | 0.00 | 0.00 | 0.00 | 73 | 1012.8 |
| 20260904062942 | 81 | 186 | 5.0 | 11.0 | 0.00 | 0.00 | 0.00 | 73 | 1012.8 |
| 20260904062431 | 81 | 141 | 6.0 | 11.0 | 0.00 | 0.00 | 0.00 | 73 | 1012.9 |
| 20260904062005 | 81 | 143 | 5.0 | 10.0 | 0.00 | 0.00 | 0.00 | 72 | 1012.8 |
| 20260904061454 | 81 | 135 | 6.0 | 11.0 | 0.00 | 0.00 | 0.00 | 72 | 1012.9 |
| 20260904060958 | 81 | 162 | 5.0 | 11.0 | 0.00 | 0.00 | 0.00 | 72 | 1013.0 |
| 20260904060428 | 81 | 134 | 8.0 | 11.0 | 0.00 | 0.00 | 0.00 | 71 | 1013.0 |
| 20260904055949 | 81 | 187 | 3.0 | 10.0 | 0.00 | 0.00 | 0.00 | 71 | 1012.9 |
| 20260904055432 | 81 | 135 | 2.0 | 9.0 | 0.00 | 0.00 | 0.00 | 70 | 1013.0 |
| 20260904054942 | 82 | 172 | 5.0 | 12.0 | 0.00 | 0.00 | 0.00 | 70 | 1013.0 |
| 20260904054428 | 82 | 177 | 5.0 | 12.0 | 0.00 | 0.00 | 0.00 | 69 | 1013.0 |
| 20260904053939 | 82 | 153 | 8.0 | 12.0 | 0.00 | 0.00 | 0.00 | 68 | 1012.9 |
| 20260904053427 | 82 | 158 | 4.0 | 11.0 | 0.00 | 0.00 | 0.00 | 68 | 1012.8 |
| 20260904052934 | 82 | 167 | 3.0 | 12.0 | 0.00 | 0.00 | 0.00 | 67 | 1012.8 |
| 20260904052444 | 82 | 127 | 6.0 | 12.0 | 0.00 | 0.00 | 0.00 | 67 | 1012.8 |
| 20260904051945 | 82 | 148 | 6.0 | 10.0 | 0.00 | 0.00 | 0.00 | 66 | 1012.8 |
| 20260904051448 | 82 | 139 | 4.0 | 9.0 | 0.00 | 0.00 | 0.00 | 65 | 1012.8 |
| 20260904050929 | 82 | 129 | 5.0 | 7.0 | 0.00 | 0.00 | 0.00 | 65 | 1012.7 |
| 20260904050440 | 82 | 190 | 3.0 | 11.0 | 0.00 | 0.00 | 0.00 | 65 | 1012.9 |
| 20260904045928 | 82 | 121 | 5.0 | 12.0 | 0.00 | 0.00 | 0.00 | 65 | 1012.7 |
| 20260904045435 | 82 | 141 | 6.0 | 12.0 | 0.00 | 0.00 | 0.00 | 65 | 1012.6 |
| 20260904045005 | 82 | 118 | 7.0 | 11.0 | 0.00 | 0.00 | 0.00 | 65 | 1012.6 |
| 20260904044452 | 82 | 144 | 5.0 | 13.0 | 0.00 | 0.00 | 0.00 | 65 | 1012.6 |
| 20260904043944 | 82 | 130 | 6.0 | 13.0 | 0.00 | 0.00 | 0.00 | 66 | 1012.6 |
| 20260904043450 | 82 | 133 | 4.0 | 11.0 | 0.00 | 0.00 | 0.00 | 66 | 1012.7 |
| 20260904042958 | 83 | 124 | 7.0 | 13.0 | 0.00 | 0.00 | 0.00 | 66 | 1012.7 |
| 20260904042442 | 83 | 135 | 5.0 | 13.0 | 0.00 | 0.00 | 0.00 | 66 | 1012.6 |
| 20260904041930 | 83 | 114 | 6.0 | 11.0 | 0.00 | 0.00 | 0.00 | 66 | 1012.6 |
| 20260904041436 | 83 | 135 | 4.0 | 10.0 | 0.00 | 0.00 | 0.00 | 66 | 1012.7 |
| 20260904040939 | 83 | 135 | 4.0 | 13.0 | 0.00 | 0.00 | 0.00 | 66 | 1012.7 |
| 20260904040427 | 83 | 123 | 7.0 | 13.0 | 0.00 | 0.00 | 0.00 | 66 | 1012.7 |
| 20260904035941 | 83 | 126 | 4.0 | 12.0 | 0.00 | 0.00 | 0.00 | 67 | 1012.7 |
| 20260904035446 | 83 | 129 | 7.0 | 13.0 | 0.00 | 0.00 | 0.00 | 67 | 1012.7 |
| 20260904034932 | 83 | 144 | 7.0 | 13.0 | 0.00 | 0.00 | 0.00 | 67 | 1012.8 |
| 20260904034441 | 83 | 120 | 6.0 | 10.0 | 0.00 | 0.00 | 0.00 | 67 | 1012.7 |
| 20260904033939 | 83 | 125 | 4.0 | 12.0 | 0.00 | 0.00 | 0.00 | 66 | 1012.6 |
| 20260904033446 | 83 | 112 | 8.0 | 12.0 | 0.00 | 0.00 | 0.00 | 66 | 1012.6 |
| 20260904032932 | 84 | 119 | 5.0 | 10.0 | 0.00 | 0.00 | 0.00 | 66 | 1012.6 |
| 20260904032444 | 84 | 123 | 4.0 | 10.0 | 0.00 | 0.00 | 0.00 | 66 | 1012.7 |
| 20260904031950 | 84 | 119 | 4.0 | 10.0 | 0.00 | 0.00 | 0.00 | 66 | 1012.6 |
| 20260904031440 | 84 | 114 | 5.0 | 10.0 | 0.00 | 0.00 | 0.00 | 65 | 1012.6 |
| 20260904030933 | 84 | 138 | 5.0 | 10.0 | 0.00 | 0.00 | 0.00 | 65 | 1012.6 |
| 20260904030440 | 84 | 126 | 4.0 | 11.0 | 0.00 | 0.00 | 0.00 | 65 | 1012.6 |
| 20260904025945 | 84 | 117 | 4.0 | 11.0 | 0.00 | 0.00 | 0.00 | 65 | 1012.4 |
| 20260904025431 | 84 | 105 | 7.0 | 11.0 | 0.00 | 0.00 | 0.00 | 66 | 1012.4 |
| 20260904025007 | 84 | 121 | 4.0 | 12.0 | 0.00 | 0.00 | 0.00 | 66 | 1012.4 |
| 20260904024429 | 84 | 153 | 6.0 | 12.0 | 0.00 | 0.00 | 0.00 | 67 | 1012.3 |
| 20260904023936 | 84 | 112 | 8.0 | 12.0 | 0.00 | 0.00 | 0.00 | 67 | 1012.2 |
| 20260904023442 | 85 | 148 | 7.0 | 16.0 | 0.00 | 0.00 | 0.00 | 67 | 1012.2 |
| 20260904022943 | 85 | 112 | 8.0 | 16.0 | 0.00 | 0.00 | 0.00 | 67 | 1012.2 |
| 20260904022443 | 85 | 137 | 10.0 | 17.0 | 0.00 | 0.00 | 0.00 | 66 | 1012.1 |
| 20260904021925 | 85 | 112 | 11.0 | 17.0 | 0.00 | 0.00 | 0.00 | 66 | 1011.9 |
| 20260904021436 | 86 | 96 | 9.0 | 15.0 | 0.00 | 0.00 | 0.00 | 65 | 1011.9 |
| 20260904020929 | 86 | 112 | 9.0 | 15.0 | 0.00 | 0.00 | 0.00 | 62 | 1011.7 |
| 20260904020435 | 86 | 124 | 9.0 | 11.0 | 0.00 | 0.00 | 0.00 | 59 | 1011.6 |
| 20260904020003 | 86 | 119 | 6.0 | 14.0 | 0.00 | 0.00 | 0.00 | 58 | 1011.6 |
| 20260904015432 | 86 | 114 | 8.0 | 14.0 | 0.00 | 0.00 | 0.00 | 58 | 1011.4 |
| 20260904014941 | 86 | 124 | 6.0 | 12.0 | 0.00 | 0.00 | 0.00 | 58 | 1011.4 |
| 20260904014425 | 87 | 114 | 7.0 | 12.0 | 0.00 | 0.00 | 0.00 | 58 | 1011.3 |
| 20260904013936 | 87 | 122 | 6.0 | 12.0 | 0.00 | 0.00 | 0.00 | 58 | 1011.2 |
| 20260904013441 | 87 | 107 | 7.0 | 13.0 | 0.00 | 0.00 | 0.00 | 59 | 1011.1 |
| 20260904012928 | 87 | 153 | 7.0 | 16.0 | 0.00 | 0.00 | 0.00 | 59 | 1011.0 |
| 20260904012433 | 87 | 133 | 8.0 | 16.0 | 0.00 | 0.00 | 0.00 | 59 | 1010.9 |
| 20260904011939 | 87 | 90 | 8.0 | 15.0 | 0.00 | 0.00 | 0.00 | 59 | 1010.9 |
| 20260904011429 | 87 | 141 | 7.0 | 15.0 | 0.00 | 0.00 | 0.00 | 59 | 1010.9 |
| 20260904010927 | 88 | 114 | 7.0 | 14.0 | 0.00 | 0.00 | 0.00 | 59 | 1010.8 |
| 20260904010433 | 88 | 122 | 7.0 | 15.0 | 0.00 | 0.00 | 0.00 | 59 | 1010.8 |
| 20260904005942 | 88 | 129 | 9.0 | 15.0 | 0.00 | 0.00 | 0.00 | 59 | 1010.7 |
| 20260904005429 | 88 | 140 | 7.0 | 12.0 | 0.00 | 0.00 | 0.00 | 58 | 1010.6 |
| 20260904004938 | 89 | 148 | 5.0 | 14.0 | 0.00 | 0.00 | 0.00 | 58 | 1010.7 |
| 20260904004426 | 89 | 164 | 8.0 | 14.0 | 0.00 | 0.00 | 0.00 | 58 | 1010.7 |
| 20260904003937 | 89 | 163 | 8.0 | 14.0 | 0.00 | 0.00 | 0.00 | 57 | 1010.7 |
| 20260904003428 | 89 | 124 | 8.0 | 14.0 | 0.00 | 0.00 | 0.00 | 57 | 1010.7 |
| 20260904002933 | 89 | 120 | 5.0 | 11.0 | 0.00 | 0.00 | 0.00 | 58 | 1010.6 |
| 20260904002507 | 90 | 138 | 5.0 | 14.0 | 0.00 | 0.00 | 0.00 | 57 | 1010.5 |
| 20260904001933 | 90 | 137 | 11.0 | 14.0 | 0.00 | 0.00 | 0.00 | 57 | 1010.5 |
| 20260904001425 | 90 | 139 | 6.0 | 13.0 | 0.00 | 0.00 | 0.00 | 57 | 1010.6 |
| 20260904000932 | 90 | 131 | 8.0 | 14.0 | 0.00 | 0.00 | 0.00 | 57 | 1010.5 |
| 20260904000442 | 90 | 140 | 8.0 | 14.0 | 0.00 | 0.00 | 0.00 | 57 | 1010.5 |
| 20260903235929 | 91 | 112 | 7.0 | 13.0 | 0.00 | 0.00 | 0.00 | 57 | 1010.4 |
| 20260903235436 | 91 | 148 | 9.0 | 15.0 | 0.00 | 0.00 | 0.00 | 57 | 1010.5 |
| 20260903234941 | 91 | 104 | 10.0 | 16.0 | 0.00 | 0.00 | 0.00 | 56 | 1010.3 |
| 20260903234425 | 91 | 158 | 11.0 | 16.0 | 0.00 | 0.00 | 0.00 | 56 | 1010.3 |
| 20260903233935 | 91 | 104 | 8.0 | 15.0 | 0.00 | 0.00 | 0.00 | 56 | 1010.3 |
| 20260903233443 | 91 | 158 | 10.0 | 17.0 | 0.00 | 0.00 | 0.00 | 56 | 1010.3 |
| 20260903232931 | 92 | 120 | 11.0 | 17.0 | 0.00 | 0.00 | 0.00 | 56 | 1010.1 |
| 20260903232442 | 92 | 142 | 10.0 | 16.0 | 0.00 | 0.00 | 0.00 | 56 | 1010.0 |
| 20260903231949 | 92 | 109 | 13.0 | 16.0 | 0.00 | 0.00 | 0.00 | 56 | 1010.0 |
| 20260903231430 | 92 | 131 | 7.0 | 16.0 | 0.00 | 0.00 | 0.00 | 56 | 1010.0 |
| 20260903230936 | 92 | 100 | 11.0 | 16.0 | 0.00 | 0.00 | 0.00 | 56 | 1009.9 |
| 20260903230440 | 92 | 132 | 9.0 | 16.0 | 0.00 | 0.00 | 0.00 | 56 | 1009.9 |
| 20260903225930 | 93 | 116 | 9.0 | 16.0 | 0.00 | 0.00 | 0.00 | 55 | 1010.0 |
| 20260903225433 | 93 | 153 | 6.0 | 12.0 | 0.00 | 0.00 | 0.00 | 54 | 1010.0 |
| 20260903224957 | 93 | 124 | 7.0 | 11.0 | 0.00 | 0.00 | 0.00 | 54 | 1010.0 |
| 20260903224445 | 93 | 143 | 6.0 | 12.0 | 0.00 | 0.00 | 0.00 | 54 | 1010.0 |
| 20260903223949 | 93 | 174 | 5.0 | 14.0 | 0.00 | 0.00 | 0.00 | 55 | 1010.1 |
| 20260903223457 | 92 | 117 | 9.0 | 14.0 | 0.00 | 0.00 | 0.00 | 55 | 1010.1 |
| 20260903222925 | 92 | 144 | 6.0 | 12.0 | 0.00 | 0.00 | 0.00 | 55 | 1010.1 |
| 20260903222456 | 92 | 189 | 7.0 | 12.0 | 0.00 | 0.00 | 0.00 | 56 | 1010.0 |
| 20260903221938 | 92 | 135 | 8.0 | 14.0 | 0.00 | 0.00 | 0.00 | 56 | 1010.2 |
| 20260903221440 | 93 | 191 | 7.0 | 14.0 | 0.00 | 0.00 | 0.00 | 55 | 1010.1 |
| 20260903220948 | 94 | 201 | 6.0 | 11.0 | 0.00 | 0.00 | 0.00 | 54 | 1010.0 |
| 20260903220451 | 94 | 126 | 5.0 | 11.0 | 0.00 | 0.00 | 0.00 | 55 | 1010.1 |
| 20260903215935 | 94 | 118 | 6.0 | 12.0 | 0.00 | 0.00 | 0.00 | 55 | 1010.0 |
| 20260903215443 | 93 | 148 | 8.0 | 14.0 | 0.00 | 0.00 | 0.00 | 55 | 1010.1 |
| 20260903214933 | 93 | 124 | 7.0 | 14.0 | 0.00 | 0.00 | 0.00 | 56 | 1010.1 |
| 20260903214440 | 94 | 115 | 9.0 | 13.0 | 0.00 | 0.00 | 0.00 | 55 | 1010.1 |
| 20260903213943 | 93 | 189 | 6.0 | 12.0 | 0.00 | 0.00 | 0.00 | 55 | 1010.1 |
| 20260903213446 | 93 | 122 | 8.0 | 13.0 | 0.00 | 0.00 | 0.00 | 55 | 1010.2 |
| 20260903212933 | 93 | 112 | 8.0 | 14.0 | 0.00 | 0.00 | 0.00 | 55 | 1010.2 |
| 20260903212436 | 93 | 102 | 6.0 | 14.0 | 0.00 | 0.00 | 0.00 | 56 | 1010.3 |
| 20260903212009 | 93 | 106 | 9.0 | 13.0 | 0.00 | 0.00 | 0.00 | 56 | 1010.3 |
| 20260903211502 | 93 | 139 | 6.0 | 13.0 | 0.00 | 0.00 | 0.00 | 57 | 1010.4 |
| 20260903210928 | 92 | 121 | 5.0 | 13.0 | 0.00 | 0.00 | 0.00 | 57 | 1010.5 |
| 20260903210503 | 93 | 113 | 8.0 | 13.0 | 0.00 | 0.00 | 0.00 | 56 | 1010.6 |
| 20260903205932 | 93 | 124 | 10.0 | 18.0 | 0.00 | 0.00 | 0.00 | 57 | 1010.6 |
| 20260903205440 | 93 | 179 | 7.0 | 18.0 | 0.00 | 0.00 | 0.00 | 56 | 1010.6 |
| 20260903204932 | 94 | 183 | 6.0 | 12.0 | 0.00 | 0.00 | 0.00 | 56 | 1010.7 |
| 20260903204437 | 93 | 136 | 7.0 | 12.0 | 0.00 | 0.00 | 0.00 | 57 | 1010.7 |
| 20260903203943 | 94 | 195 | 7.0 | 11.0 | 0.00 | 0.00 | 0.00 | 57 | 1010.8 |
| 20260903203430 | 94 | 189 | 8.0 | 13.0 | 0.00 | 0.00 | 0.00 | 56 | 1010.9 |
| 20260903202930 | 93 | 134 | 6.0 | 15.0 | 0.00 | 0.00 | 0.00 | 58 | 1010.8 |
| 20260903202443 | 93 | 158 | 8.0 | 15.0 | 0.00 | 0.00 | 0.00 | 57 | 1010.9 |
| 20260903201929 | 93 | 158 | 6.0 | 13.0 | 0.00 | 0.00 | 0.00 | 57 | 1011.0 |
| 20260903201435 | 93 | 153 | 6.0 | 14.0 | 0.00 | 0.00 | 0.00 | 58 | 1011.1 |